Regional Weather Roundup
Issued by NWS

Home | Current Version | Previous Version | Graphics & Text | Print | Product List | Glossary On
Versions: 1 2 3 4 5 6 7 8 9 10 11 12 13 14 15 16 17 18 19 20 21 22 23 24 25 26 27
000
ASUS45 KSLC 031810
RWRUT

UTAH REGIONAL WEATHER ROUNDUP
NATIONAL WEATHER SERVICE SALT LAKE CITY UT
1100 AM MST SAT DEC 03 2016

UTZ001>011-023>025-031900-

NORTHERN UTAH

CITY           SKY/WX    TMP DP  RH WIND       PRES   REMARKS
BRIGHAM CITY     N/A     33  20  59 S12       30.31S WCI  24
HILL AFB       CLOUDY    27  18  70 E6        30.29R WCI  20
LOGAN          CLOUDY   N/A N/A N/A N5        30.29R
OGDEN          CLOUDY    29  20  69 S8        30.30R WCI  21
SALT LAKE CITY CLOUDY    32  20  61 S8        30.31R WCI  25
TOOELE VALLEY  CLOUDY    30  23  74 S10       30.31R WCI  21
WENDOVER       CLOUDY    30  18  59 CALM      30.31S
HEBER CITY     CLOUDY    21  12  68 CALM      30.26F
WEST JORDAN    CLOUDY    28  24  84 S10       30.31S WCI  19

$$

UTZ011>015-024>027-031900-

CENTRAL/NORTHEAST UTAH

CITY           SKY/WX    TMP DP  RH WIND       PRES   REMARKS
PROVO AIRPORT  CLOUDY    28  17  63 CALM      30.33S
MOAB/CANYONLAN SUNNY     34  17  50 CALM      30.22F
DELTA          CLOUDY    28  21  74 CALM      30.32S
PRICE          SUNNY     29   8  41 SE3       30.19F
RICHFIELD      MOSUNNY   25  14  63 CALM      30.30
ROOSEVELT      SUNNY     28  16  59 E7        30.24F WCI  21
VERNAL         SUNNY     27  14  58 SE7       30.23S WCI  19

$$

UTZ013>016-019>022-027-031900-

SOUTHERN UTAH

CITY           SKY/WX    TMP DP  RH WIND       PRES   REMARKS
BRYCE CANYON   SUNNY     23   9  55 N5        30.20  WCI  17
CEDAR CITY     SUNNY     28  15  58 E3        30.26R
MILFORD        SUNNY     31  18  58 N7        30.29R WCI  24
ST GEORGE      PTCLDY    39  18  41 CALM      30.30F
HANKSVILLE     SUNNY     32  14  47 CALM      30.28S
KANAB          SUNNY     41  10  28 E7G14     30.25
BLANDING       SUNNY     37  13  37 SW6       30.23F WCI  32

$$

REGIONAL REPORTS     COLORADO/ARIZONA

CITY           SKY/WX    TMP DP  RH WIND       PRES   REMARKS
CRAIG, CO      CLOUDY    23  11  60 E5        30.18F WCI  17
GRAND JUNCTION SUNNY     35  22  58 CALM      30.22F
RIFLE, CO      CLOUDY    28  16  60 CALM      30.23F
MONTROSE, CO   PTSUNNY   31  18  58 CALM      30.23S
CORTEZ, CO     SUNNY     34  26  72 S3        30.15S
COLORADO CITY    N/A     39  14  35 N3        30.24S
PAGE, AZ       SUNNY     38   8  29 VRB3      30.23S
GRAND CANYON   SUNNY     32  13  45 NE17G24   30.17S WCI  21
KINGMAN, AZ    SUNNY     43  11  27 N13       30.18F
FLAGSTAFF, AZ  SUNNY     34  20  56 NE18G26   30.11R WCI  23

$$

REGIONAL REPORTS    NEVADA/IDAHO/WYOMING

CITY           SKY/WX    TMP DP  RH WIND       PRES   REMARKS
LAS VEGAS, NV  MOSUNNY   50   6  16 NE13      30.25S
ELY, NY        SUNNY     26  10  50 S5        30.27S WCI  20
ELKO, NV       CLOUDY    32  14  47 SW8       30.33R WCI  25
POCATELLO, ID  CLOUDY    32  20  61 S14       30.26R WCI  22
BURLEY, ID     CLOUDY    37  22  54 W15       30.24R WCI  28
FORT BRIDGER,  CLOUDY    28  13  54 W14G22    30.17S WCI  17
EVANSTON, WY   CLOUDY    22  11  62 SW24      30.16F WCI   5
ROCK SPRINGS,  SUNNY     23  10  57 W33G43    30.08S WCI   5

$$




USA.gov is the U.S. government's official web portal to all federal, state and local government web resources and services.